Date String (YYYY-MM-DD hh:mm:ss) UTC,Instrument flags,Ambient pressure (hPa),Sample flow (lpm),Bypass flow (lpm),Sample temperature (°C),Ambient temperature (°C),ASC tube jacket temperature (°C),LED temperature (°C),Box temperature (°C),Sample RH (%),Span deviation,Mass concentration (μg/m³),Mass concentration (μg/m³),Mass concentration (μg/m³)
DateTimeUTC,F1_M11,P_M11,Q1_M11,Q2_M11,T1_M11,T2_M11,T3_M11,T4_M11,T5_M11,U1_M11,ZSPAN_M11,X0_M11,X2_M11,X1_M11
2021-09-16 12:00:00,,0823.4,4.99,0.00,29.8,29.1,00.0,39.0,31.5,08.4,0003.7,0008.17,0005.38,0005.07
2021-09-16 12:01:00,,0823.3,5.00,0.00,29.8,29.1,00.0,39.1,31.5,08.4,0003.7,0008.31,0005.34,0005.06
2021-09-16 12:02:00,,0823.3,5.01,0.00,29.9,29.1,00.0,39.0,31.5,08.4,0003.5,0008.61,0005.34,0005.06
2021-09-16 12:03:00,,0823.3,5.00,0.00,29.8,29.1,00.0,39.0,31.5,08.3,0003.4,0008.99,0005.36,0005.07
2021-09-16 12:04:00,,0823.3,4.99,0.00,29.8,29.1,00.0,39.0,31.5,08.2,0003.2,0009.10,0005.38,0005.08
2021-09-16 12:05:00,,0823.3,5.01,0.00,29.8,29.1,00.0,39.0,31.5,08.0,0003.0,0009.57,0005.39,0005.06
2021-09-16 12:06:00,,0823.4,5.01,0.00,29.8,29.1,00.0,39.0,31.5,08.0,0002.7,0009.67,0005.39,0005.05
2021-09-16 12:07:00,,0823.4,4.99,0.00,29.8,29.1,00.0,39.0,31.5,08.1,0003.1,0009.68,0005.39,0005.04
2021-09-16 12:08:00,,0823.4,5.01,0.00,29.8,29.1,00.0,39.0,31.5,08.2,0003.4,0009.55,0005.37,0005.03
2021-09-16 12:09:00,,0823.4,4.99,0.00,29.8,29.1,00.0,39.0,31.5,08.2,0003.5,0009.47,0005.34,0005.03
2021-09-16 12:10:00,,0823.4,5.00,0.00,29.8,29.1,00.0,39.0,31.5,08.2,0003.3,0009.64,0005.35,0005.04
2021-09-16 12:11:00,,0823.4,4.99,0.00,29.8,29.1,00.0,39.0,31.5,08.3,0003.2,0009.62,0005.34,0005.05
2021-09-16 12:12:00,,0823.4,5.01,0.00,29.8,29.1,00.0,39.0,31.5,08.2,0003.1,0009.50,0005.36,0005.04
2021-09-16 12:13:00,,0823.4,4.99,0.00,29.8,29.1,00.0,39.0,31.5,08.1,0003.1,0009.78,0005.36,0005.05
2021-09-16 12:14:00,,0823.4,5.00,0.00,29.8,29.1,00.0,39.0,31.6,08.2,0003.1,0009.52,0005.38,0005.07
2021-09-16 12:15:00,,0823.4,5.00,0.00,29.8,29.0,00.0,39.0,31.5,08.2,0003.4,0009.79,0005.39,0005.08
2021-09-16 12:16:00,,0823.4,5.01,0.00,29.8,29.1,00.0,39.0,31.5,08.2,0003.6,0009.55,0005.37,0005.09
2021-09-16 12:17:00,,0823.4,5.00,0.00,29.8,29.1,00.0,39.0,31.6,08.3,0003.5,0009.38,0005.35,0005.11
2021-09-16 12:18:00,,0823.4,4.99,0.00,29.8,29.1,00.0,39.0,31.5,08.3,0003.1,0009.36,0005.36,0005.12
2021-09-16 12:19:00,,0823.4,5.01,0.00,29.8,29.1,00.0,39.0,31.6,08.2,0002.7,0009.41,0005.39,0005.15
2021-09-16 12:20:00,,0823.3,4.99,0.00,29.8,29.1,00.0,39.0,31.5,08.2,0002.4,0009.49,0005.44,0005.18
2021-09-16 12:21:00,,0823.4,5.01,0.00,29.8,29.1,00.0,39.0,31.5,08.2,0002.4,0009.43,0005.48,0005.20
2021-09-16 12:22:00,,0823.3,5.00,0.00,29.8,29.1,00.0,39.0,31.5,08.0,0002.4,0009.44,0005.51,0005.22
2021-09-16 12:23:00,,0823.3,5.00,0.00,29.8,29.1,00.0,39.0,31.5,07.9,0002.8,0009.41,0005.51,0005.24
2021-09-16 12:24:00,,0823.3,4.99,0.00,29.8,29.1,00.0,39.0,31.5,08.0,0003.0,0008.95,0005.53,0005.25
2021-09-16 12:25:00,,0823.3,5.02,0.00,29.8,29.1,00.0,39.0,31.5,08.3,0002.7,0008.79,0005.54,0005.25
2021-09-16 12:26:00,,0823.3,5.01,0.00,29.8,29.0,00.0,39.0,31.5,08.3,0002.8,0008.48,0005.56,0005.26
2021-09-16 12:27:00,,0823.4,4.99,0.00,29.8,29.0,00.0,39.0,31.5,08.5,0002.9,0008.39,0005.58,0005.27
2021-09-16 12:28:00,,0823.3,5.01,0.00,29.8,29.0,00.0,39.0,31.5,08.4,0003.1,0008.46,0005.61,0005.28
2021-09-16 12:29:00,,0823.3,5.00,0.00,29.8,29.0,00.0,39.0,31.5,08.3,0003.1,0008.51,0005.64,0005.30
2021-09-16 12:30:00,,0823.3,5.00,0.00,29.8,29.0,00.0,39.0,31.5,08.3,0003.3,0008.58,0005.65,0005.31
2021-09-16 12:31:00,,0823.3,4.99,0.00,29.8,29.0,00.0,39.0,31.5,08.4,0003.0,0008.65,0005.63,0005.31
2021-09-16 12:32:00,,0823.3,5.02,0.00,29.8,29.0,00.0,39.0,31.5,08.5,0002.9,0008.55,0005.59,0005.29
2021-09-16 12:33:00,,0823.3,4.99,0.00,29.8,29.0,00.0,39.0,31.5,08.5,0002.8,0009.10,0005.58,0005.28
2021-09-16 12:34:00,,0823.3,4.99,0.00,29.8,29.1,00.0,39.0,31.5,08.5,0002.5,0009.21,0005.61,0005.29
2021-09-16 12:35:00,,0823.4,5.01,0.00,29.8,29.0,00.0,39.0,31.5,08.5,0002.4,0009.25,0005.59,0005.28
2021-09-16 12:36:00,,0823.3,4.99,0.00,29.8,29.0,00.0,39.0,31.5,08.5,0002.8,0009.18,0005.57,0005.27
2021-09-16 12:37:00,,0823.3,5.00,0.00,29.8,29.0,00.0,39.0,31.5,08.5,0002.8,0009.08,0005.55,0005.27
2021-09-16 12:38:00,,0823.4,5.00,0.00,29.8,29.0,00.0,39.0,31.5,08.5,0002.4,0009.44,0005.55,0005.27
2021-09-16 12:39:00,,0823.3,5.00,0.00,29.8,29.0,00.0,39.0,31.5,08.5,0002.2,0009.65,0005.56,0005.28
2021-09-16 12:40:00,,0823.3,5.01,0.00,29.8,29.0,00.0,39.0,31.5,08.5,0002.1,0009.64,0005.54,0005.27
2021-09-16 12:41:00,,0823.3,4.99,0.00,29.8,29.0,00.0,39.0,31.5,08.5,0002.0,0009.57,0005.54,0005.27
2021-09-16 12:42:00,,0823.4,5.00,0.00,29.8,29.0,00.0,39.0,31.5,08.5,0002.3,0009.45,0005.53,0005.26
2021-09-16 12:43:00,,0823.3,5.01,0.00,29.8,29.1,00.0,39.0,31.5,08.5,0002.5,0009.39,0005.53,0005.28
2021-09-16 12:44:00,,0823.3,5.01,0.00,29.8,29.1,00.0,39.0,31.5,08.5,0002.6,0009.03,0005.55,0005.30
2021-09-16 12:45:00,,0823.3,4.99,0.00,29.8,29.0,00.0,39.0,31.5,08.5,0002.7,0008.85,0005.57,0005.31
2021-09-16 12:46:00,,0823.3,5.00,0.00,29.8,29.0,00.0,39.0,31.5,08.5,0002.9,0008.91,0005.58,0005.32
2021-09-16 12:47:00,,0823.3,4.99,0.00,29.8,29.1,00.0,39.0,31.5,08.5,0002.6,0009.31,0005.61,0005.33
2021-09-16 12:48:00,,0823.4,5.01,0.00,29.8,29.1,00.0,39.0,31.5,08.5,0002.5,0009.46,0005.62,0005.33
2021-09-16 12:49:00,,0823.4,5.01,0.00,29.8,29.1,00.0,39.0,31.5,08.5,0002.7,0009.26,0005.63,0005.34
2021-09-16 12:50:00,,0823.4,5.00,0.00,29.8,29.1,00.0,39.0,31.5,08.5,0002.8,0008.76,0005.62,0005.34
2021-09-16 12:51:00,,0823.4,5.01,0.00,29.8,29.1,00.0,39.0,31.5,08.5,0003.0,0008.73,0005.62,0005.34
2021-09-16 12:52:00,,0823.4,5.00,0.00,29.8,29.1,00.0,39.0,31.5,08.6,0003.2,0008.71,0005.63,0005.34
2021-09-16 12:53:00,,0823.4,5.00,0.00,29.8,29.0,00.0,39.0,31.5,08.5,0003.4,0008.72,0005.64,0005.36
2021-09-16 12:54:00,,0823.4,4.99,0.00,29.8,29.0,00.0,39.0,31.5,08.4,0003.3,0008.76,0005.66,0005.38
2021-09-16 12:55:00,,0823.4,4.99,0.00,29.8,29.0,00.0,39.0,31.5,08.6,0003.3,0008.77,0005.67,0005.38
2021-09-16 12:56:00,,0823.4,5.01,0.00,29.8,29.0,00.0,39.0,31.5,08.4,0003.3,0008.73,0005.65,0005.38
2021-09-16 12:57:00,,0823.4,4.99,0.00,29.8,29.1,00.0,39.0,31.5,08.4,0003.1,0008.62,0005.66,0005.39
2021-09-16 12:58:00,,0823.5,4.99,0.00,29.8,29.1,00.0,39.0,31.5,08.3,0003.4,0008.28,0005.65,0005.40
2021-09-16 12:59:00,,0823.5,5.01,0.00,29.8,29.1,00.0,39.0,31.5,08.3,0003.3,0008.05,0005.63,0005.40
